Regional Weather Roundup
Issued by NWS Spokane, WA

Home | Current Version | Previous Version | Text Only | Print | Product List | Glossary On
Versions: 1 2 3 4 5 6 7 8 9 10 11 12 13 14 15 16 17 18 19 20 21 22 23 24 25 26 27 28 29 30 31 32 33 34 35 36 37 38 39 40 41 42 43 44 45 46 47 48 49 50
000
NZUS01 KOTX 030510
RWROTX
EASTERN WASHINGTON/NORTHERN IDAHO ROUNDUP
NATIONAL WEATHER SERVICE, SPOKANE WA
1000 PM PDT WED SEP 02 2015

Note: "fair" indicated few or no clouds below 12,000 feet with no
significant weather and/or obstructions to visibility.

...NORTHEAST WASHINGTON AND NORTHERN IDAHO PANHANDLE...

CITY           SKY/WX    TMP DP  RH WIND       PRES   REMARKS
SPOKANE INTL   PTCLDY    57  42  57 S6        29.86S
SPOKANE DOWNTO CLEAR     57  45  64 N3        29.86S
COEUR D ALENE  CLEAR     55  45  67 S5        29.87F
DEER PARK      PTCLDY    57  39  51 SE7       29.86R
BONNERS FERRY  FAIR      50  45  81 N7        29.86S

...SOUTHEAST WASHINGTON AND SOUTHERN IDAHO PANHANDLE...

CITY           SKY/WX    TMP DP  RH WIND       PRES   REMARKS
WALLA WALLA    MOCLDY    63  48  58 S8        29.86R
PULLMAN/MOSCOW MOCLDY    51  45  79 CALM      29.90S
LEWISTON       CLOUDY    63  45  51 CALM      29.85F
LOWELL           N/A     60  53  77 CALM      29.89S

...COLUMBIA BASIN...

CITY           SKY/WX    TMP DP  RH WIND       PRES   REMARKS
EPHRATA        CLEAR     61  35  37 NW20      29.83R
MOSES LAKE     PTCLDY    59  35  40 NW9       29.85R
TRI CITIES     CLEAR     62  38  40 W9        29.85R
HERMISTON      CLOUDY    64  44  48 W16       29.86R
PENDLETON      CLOUDY    62  40  44 W17       29.87S

...EAST SLOPES CASCADES...

CITY           SKY/WX    TMP DP  RH WIND       PRES   REMARKS
THE DALLES     MOCLDY    61  47  59 W13       29.90S
YAKIMA         CLEAR     61  39  44 N10       29.88S
ELLENSBURG     CLEAR     53  40  61 NW22      29.90R
WENATCHEE      CLEAR     59  36  42 N9        29.86R
OMAK           CLEAR     55  27  34 CALM      29.81R

...SOUTHERN BRITISH COLUMBIA...

CITY           SKY/WX    TMP DP  RH WIND       PRES   REMARKS
CRANBROOK      MOCLDY    48  41  76 N6        29.89S

...WESTERN MONTANA...

CITY           SKY/WX    TMP DP  RH WIND       PRES   REMARKS
MISSOULA       CLOUDY    59  41  51 NW14      29.91S

...NEIGHBORING CITIES...

CITY           SKY/WX    TMP DP  RH WIND       PRES   REMARKS
SEATTLE        PTCLDY    56  49  77 NE3       29.96S
CALGARY        PTCLDY    54  27  35 W13       29.83R



USA.gov is the U.S. government's official web portal to all federal, state and local government web resources and services.